[[{"header":{"parameterUnit":"m.s-1","parameterCategory":1,"la1":30.2991,"la2":30.254,"lo1":-89.0895,"lo2":-89.0444,"dy":0.0017,"dx":0.0017,"nx":28,"ny":28,"refTime":"2025-06-03T03:00:00:Z","depth":0,"parameterNumber":2,"parameterNumberName":"U-component_of_WINDS"},"data":[0,0,0,0,0,0,0,0,0,0,0,0,0,0,0,0,0,0,0,0,0,0,0,0,0,0,0,0,0,0,0,0,0,0,0,0,0,0,0,0,0,0,0,0,0,0,0,0,0,0,0,0,0,0,0,0,0,0,-5.3149,-5.3149,0,-5.3144,-5.3144,-5.3144,-5.3073,-5.3071,-5.307,-5.3068,-5.3063,-5.3064,-5.3066,0,0,0,0,0,0,0,0,0,0,0,0,0,-5.3098,-5.31,-5.3149,-5.3149,-5.3149,-5.3144,-5.3144,-5.3144,-5.3073,-5.3071,-5.3069,-5.3067,-5.3062,-5.3064,-5.3066,0,0,0,0,0,0,0,0,0,0,0,0,0,-5.311,-5.31,-5.3149,-5.3113,-5.311,-5.3144,-5.3144,-5.3144,-5.3074,-5.3071,-5.3068,-5.3066,-5.3062,-5.3064,-5.3066,-5.3134,0,0,-5.3073,-5.3074,0,0,0,0,0,0,0,0,-5.3109,-5.3112,-5.3119,-5.3116,-5.3112,-5.3107,-5.3124,-5.3141,-5.3075,-5.3088,-5.3068,-5.3065,-5.3079,-5.308,-5.3085,-5.3134,-5.3134,-5.3073,-5.3075,-5.3076,-5.3076,0,0,0,0,0,0,0,-5.3108,-5.3111,-5.3147,-5.3119,-5.3115,-5.3098,-5.3096,-5.3127,-5.3099,-5.3086,-5.3081,-5.3081,-5.3077,-5.3083,-5.3084,-5.3134,-5.3073,-5.3075,-5.3077,-5.3078,-5.3239,-5.3242,0,0,0,0,0,0,-5.3112,-5.3111,-5.3147,-5.3147,-5.3104,-5.3101,-5.3099,-5.3111,-5.3098,-5.3094,-5.3084,-5.3078,-5.308,-5.3082,-5.3084,-5.3162,-5.3076,-5.3078,-5.3079,-5.3236,-5.324,-5.3243,0,0,0,0,0,0,-5.3112,-5.3116,-5.3147,-5.3128,-5.313,-5.3104,-5.3118,-5.3112,-5.3118,-5.3096,-5.3091,-5.3095,-5.3078,-5.3081,-5.3122,-5.3161,-5.3079,-5.3081,-5.3233,-5.3237,-5.3241,-5.3319,0,0,0,0,0,0,-5.311,-5.3116,-5.3142,-5.3129,-5.3132,-5.3186,-5.3121,-5.3114,-5.3122,-5.3115,-5.3105,-5.3101,-5.3076,-5.3119,-5.3125,-5.3162,-5.3083,-5.3229,-5.3235,-5.324,-5.3313,-5.3326,-5.3337,0,0,0,0,0,-5.3109,-5.3164,-5.3143,-5.3148,-5.3163,-5.3188,-5.319,-5.316,-5.3126,-5.3151,-5.3137,-5.3101,-5.3157,-5.3124,-5.313,-5.3169,-5.3226,-5.3233,-5.3239,-5.3308,-5.3323,-5.3336,0,0,0,0,0,0,-5.3181,-5.3161,-5.3138,-5.3191,-5.3192,-5.3176,-5.3206,-5.3177,-5.3188,-5.318,-5.3144,-5.3142,-5.3189,-5.3184,-5.3148,-5.3234,-5.3185,-5.3193,-5.3235,-5.325,-5.3262,-5.326,-5.3085,0,0,0,0,0,-5.3203,-5.3225,-5.3207,-5.3255,-5.3257,-5.3232,-5.3242,-5.322,-5.3219,-5.3219,-5.3208,-5.3209,-5.3227,-5.3239,-5.3254,-5.3314,-5.331,-5.3343,-5.3355,-5.3365,-5.3371,-5.3401,-5.3416,-5.3264,-5.3264,-5.3264,0,0,-5.3249,-5.3241,-5.3257,-5.327,-5.3267,-5.3291,-5.3233,-5.326,-5.3277,-5.3223,-5.3261,-5.3254,-5.3253,-5.3304,-5.3325,-5.33,-5.3413,-5.3373,-5.3381,-5.3382,-5.341,-5.3424,-5.3437,-5.3269,-5.3268,-5.3267,0,0,-5.3343,-5.334,-5.3379,-5.3379,-5.3377,-5.3361,-5.3371,-5.336,-5.3353,-5.3391,-5.3351,-5.3372,-5.3403,-5.3403,-5.3407,-5.3506,-5.3472,-5.3512,-5.3572,-5.3602,-5.3614,-5.3624,-5.3657,-5.367,-5.3519,-5.3519,-5.3519,0,-5.3399,-5.3433,-5.3403,-5.3433,-5.344,-5.3393,-5.3433,-5.3434,-5.3438,-5.3443,-5.3416,-5.3454,-5.345,-5.35,-5.3524,-5.353,-5.3539,-5.3511,-5.3615,-5.3625,-5.3634,-5.3665,-5.3678,-5.3524,-5.3523,-5.3523,-5.3522,0,-5.3501,-5.3526,-5.3558,-5.3562,-5.3573,-5.3608,-5.3584,-5.3599,-5.3577,-5.3564,-5.3603,-5.3598,-5.361,-5.3621,-5.36,-5.3669,-5.3653,-5.3621,-5.357,-5.3653,-5.3682,-5.3694,-5.353,-5.3529,-5.3527,-5.3526,0,0,-5.3636,-5.3626,-5.3638,-5.364,-5.3636,-5.3654,-5.3688,-5.3701,-5.3714,-5.3719,-5.3745,-5.3774,-5.3745,-5.375,-5.3729,-5.3756,-5.3832,-5.372,-5.372,-5.3739,-5.3906,-5.3928,-5.3942,-5.3812,-5.3815,-5.3816,-5.3905,0,-5.3725,-5.378,-5.3756,-5.3814,-5.3836,-5.3794,-5.3823,-5.3825,-5.3814,-5.3832,-5.3821,-5.3841,-5.3801,-5.3804,-5.383,-5.3818,-5.3865,-5.3811,-5.3835,-5.3836,-5.3833,-5.3957,-5.398,-5.4064,-5.3917,-5.3918,-5.392,0,-5.3835,-5.3845,-5.3905,-5.3898,-5.3906,-5.3933,-5.3943,-5.3961,-5.3962,-5.3953,-5.396,-5.3933,-5.3966,-5.3919,-5.3963,-5.3928,-5.3937,-5.3933,-5.3936,-5.3933,-5.388,-5.3956,-5.409,-5.4102,-5.3938,-5.3936,-5.3935,0,-5.3924,-5.3953,-5.3993,-5.3996,-5.399,-5.4009,-5.4007,-5.4006,-5.4016,-5.4026,-5.4031,-5.4046,-5.4052,-5.4064,-5.4042,-5.401,-5.4089,-5.404,-5.4081,-5.4081,-5.4095,-5.4094,-5.423,-5.4108,-5.4107,-5.4107,-5.4107,0,-5.4023,-5.4061,-5.4033,-5.4057,-5.4099,-5.4071,-5.4113,-5.4107,-5.4107,-5.4129,-5.4096,-5.4117,-5.4088,-5.4108,-5.4091,-5.4129,-5.4134,-5.4126,-5.4121,-5.4127,-5.4128,-5.413,-5.4122,-5.411,-5.411,-5.4109,-5.4108,0,-5.4128,-5.4111,-5.4151,-5.4143,-5.4142,-5.4173,-5.4165,-5.4187,-5.4176,-5.4205,-5.421,-5.4192,-5.4213,-5.4194,-5.4214,-5.4203,-5.4253,-5.4241,-5.4252,-5.4248,-5.4288,-5.4284,-5.4427,-5.4444,-5.4314,-5.4315,-5.4316,0,-5.4191,-5.4219,-5.4214,-5.4227,-5.4228,-5.4249,-5.4259,-5.4234,-5.4246,-5.4251,-5.4272,-5.4291,-5.4304,-5.4339,-5.4328,-5.4343,-5.4329,-5.4379,-5.4331,-5.4337,-5.4327,-5.4324,-5.4326,-5.4387,-5.4389,-5.439,-5.4391,0,-5.4303,-5.4294,-5.431,-5.4323,-5.4337,-5.4346,-5.4353,-5.4365,-5.434,-5.4356,-5.4377,-5.4387,-5.4409,-5.4427,-5.4439,-5.4437,-5.441,-5.4407,-5.4417,-5.4422,-5.4426,-5.4422,-5.4275,-5.4403,-5.4402,-5.4401,-5.44,-5.44,-5.4387,-5.441,-5.441,-5.4429,-5.4433,-5.444,-5.446,-5.4453,-5.447,-5.4485,-5.447,-5.4496,-5.4498,-5.4512,-5.4514,-5.4533,-5.4512,-5.4527,-5.453,-5.4533,-5.4538,-5.4426,-5.4536,-5.4536,-5.4535,-5.4535,-5.4535,0,-5.4495,-5.4494,-5.4512,-5.4523,-5.4539,-5.4514,-5.4521,-5.4535,-5.4558,-5.4562,-5.4576,-5.4601,-5.4619,-5.4611,-5.4627,-5.4644,-5.4632,-5.4649,-5.4646,-5.4646,-5.4557,-5.4546,-5.4659,-5.4659,-5.4659,-5.4659,-5.4659,-5.4659,-5.4553,-5.459,-5.4582,-5.4621,-5.462,-5.4644,-5.465,-5.4657,-5.4661,-5.469,-5.4705,-5.47,-5.4699,-5.4715,-5.4731,-5.4728,-5.4734,-5.4755,-5.4748,-5.4664,-5.4652,-5.464,-5.4629,-5.4758,-5.4758,-5.4834,-5.4835,-5.4835]},{"header":{"parameterUnit":"m.s-1","parameterCategory":1,"la1":30.2991,"la2":30.254,"lo1":-89.0895,"lo2":-89.0444,"dy":0.0017,"dx":0.0017,"nx":28,"ny":28,"refTime":"2025-06-03T03:00:00:Z","depth":0,"parameterNumber":3,"parameterNumberName":"V-component_of_WINDS"},"data":[0,0,0,0,0,0,0,0,0,0,0,0,0,0,0,0,0,0,0,0,0,0,0,0,0,0,0,0,0,0,0,0,0,0,0,0,0,0,0,0,0,0,0,0,0,0,0,0,0,0,0,0,0,0,0,0,0,0,2.3713,2.3714,0,2.3763,2.3763,2.3764,2.3817,2.3818,2.3819,2.382,2.3866,2.3866,2.3867,0,0,0,0,0,0,0,0,0,0,0,0,0,2.3664,2.3664,2.3713,2.3714,2.3715,2.3762,2.3763,2.3764,2.3817,2.3818,2.3819,2.382,2.3866,2.3866,2.3867,0,0,0,0,0,0,0,0,0,0,0,0,0,2.3696,2.3664,2.3713,2.3747,2.3751,2.3762,2.3763,2.3764,2.3817,2.3818,2.3819,2.382,2.3865,2.3866,2.3867,2.3848,0,0,2.3869,2.387,0,0,0,0,0,0,0,0,2.3694,2.3698,2.3742,2.3745,2.3749,2.3785,2.3763,2.3792,2.3817,2.3792,2.382,2.3821,2.3838,2.3841,2.3847,2.385,2.3852,2.3869,2.387,2.387,2.387,0,0,0,0,0,0,0,2.3692,2.3696,2.3733,2.3742,2.3747,2.3759,2.3765,2.3768,2.3807,2.3794,2.3798,2.3803,2.384,2.3846,2.3849,2.3853,2.3869,2.387,2.387,2.3871,2.3844,2.3843,0,0,0,0,0,0,2.3685,2.3694,2.3731,2.3734,2.3724,2.3759,2.3766,2.3772,2.3808,2.3814,2.3802,2.3806,2.3845,2.3848,2.3851,2.3831,2.387,2.3871,2.3871,2.3845,2.3844,2.3842,0,0,0,0,0,0,2.3684,2.3688,2.3729,2.3715,2.3721,2.3759,2.3766,2.3773,2.3779,2.3814,2.3821,2.3802,2.3846,2.385,2.3849,2.3834,2.3871,2.3872,2.3846,2.3845,2.3843,2.3792,0,0,0,0,0,0,2.3682,2.3687,2.368,2.3715,2.3722,2.3727,2.3765,2.3773,2.3781,2.3786,2.3815,2.3821,2.3847,2.3847,2.385,2.3835,2.3872,2.3848,2.3846,2.3844,2.3795,2.3789,2.3783,0,0,0,0,0,2.368,2.3663,2.368,2.3684,2.3715,2.3726,2.373,2.3761,2.3779,2.3773,2.3796,2.382,2.3835,2.3847,2.385,2.3835,2.3849,2.3846,2.3844,2.3798,2.379,2.3783,0,0,0,0,0,0,2.3623,2.3668,2.3687,2.3681,2.3699,2.3735,2.3727,2.3751,2.3764,2.3768,2.3805,2.3811,2.3806,2.3821,2.3833,2.382,2.3846,2.3844,2.381,2.3803,2.3797,2.3793,2.3873,0,0,0,0,0,2.3611,2.3617,2.3655,2.3646,2.3654,2.3689,2.3695,2.3718,2.3738,2.3746,2.3768,2.3786,2.3795,2.38,2.381,2.3798,2.3805,2.379,2.3784,2.3779,2.3776,2.3772,2.3765,2.3834,2.3834,2.3834,0,0,2.3583,2.3608,2.361,2.3635,2.3652,2.3657,2.3695,2.3699,2.3703,2.3746,2.3747,2.3764,2.3787,2.3781,2.3779,2.3793,2.3759,2.3776,2.3771,2.3771,2.3768,2.3762,2.3756,2.3832,2.3832,2.3833,0,0,2.3536,2.3556,2.3551,2.3568,2.3595,2.3618,2.3617,2.365,2.3664,2.3666,2.3699,2.3704,2.3718,2.3733,2.3743,2.3705,2.3728,2.3707,2.3675,2.367,2.3665,2.366,2.3646,2.3641,2.3704,2.3704,2.3704,0,2.3498,2.3508,2.3545,2.3547,2.3557,2.3599,2.3594,2.3609,2.3636,2.3642,2.3658,2.3678,2.3696,2.3695,2.3686,2.3692,2.3691,2.3703,2.3663,2.3659,2.3655,2.3642,2.3637,2.3701,2.3702,2.3702,2.3702,0,2.346,2.3467,2.346,2.3488,2.3498,2.3496,2.3532,2.3537,2.356,2.3582,2.3584,2.3608,2.3624,2.3625,2.3646,2.3627,2.3635,2.3656,2.3683,2.3645,2.3634,2.3629,2.3697,2.3698,2.3699,2.37,0,0,2.3376,2.3427,2.3423,2.3437,2.3471,2.3476,2.3477,2.3495,2.3499,2.3517,2.3519,2.3531,2.3552,2.3563,2.3586,2.3582,2.3551,2.3605,2.3606,2.3593,2.3531,2.3514,2.3508,2.3568,2.3567,2.3566,2.3529,0,2.3334,2.3339,2.3374,2.3368,2.3375,2.3417,2.3418,2.3438,2.346,2.3468,2.3491,2.35,2.3526,2.3533,2.3532,2.3555,2.3539,2.3558,2.3568,2.3568,2.356,2.3502,2.3484,2.3448,2.3525,2.3524,2.3524,0,2.3285,2.3303,2.3299,2.3335,2.3339,2.334,2.336,2.3367,2.3392,2.3408,2.3421,2.3449,2.3452,2.3478,2.3483,2.3495,2.3502,2.3514,2.3513,2.3514,2.3542,2.3501,2.3437,2.3431,2.3517,2.3518,2.3518,0,2.3224,2.3247,2.3248,2.3259,2.3301,2.33,2.3317,2.3343,2.3352,2.3369,2.3376,2.3392,2.3401,2.3413,2.3444,2.3461,2.3445,2.3474,2.3458,2.3457,2.3451,2.3451,2.3386,2.3457,2.3457,2.3457,2.3457,0,2.3173,2.3168,2.3222,2.3222,2.3219,2.3259,2.3254,2.3275,2.3298,2.3303,2.334,2.3344,2.3385,2.3394,2.3418,2.3418,2.3422,2.3434,2.344,2.343,2.3429,2.3434,2.3437,2.3455,2.3456,2.3456,2.3456,0,2.3102,2.3138,2.3142,2.3183,2.3193,2.3189,2.3223,2.3225,2.325,2.3256,2.3259,2.3298,2.3309,2.3343,2.3362,2.3379,2.3372,2.3384,2.3364,2.3367,2.3349,2.335,2.3285,2.3279,2.3353,2.3352,2.3352,0,2.3067,2.3065,2.3107,2.3114,2.313,2.314,2.3151,2.319,2.3199,2.3229,2.3227,2.3242,2.3256,2.3273,2.3302,2.3318,2.3331,2.3307,2.3333,2.3323,2.333,2.3329,2.3329,2.33,2.3299,2.3299,2.3298,0,2.3,2.3019,2.3033,2.3054,2.3066,2.3084,2.3103,2.3107,2.3151,2.3159,2.3173,2.3185,2.3207,2.3221,2.3242,2.3259,2.3285,2.329,2.3287,2.3276,2.3264,2.327,2.3347,2.3291,2.3291,2.3292,2.3292,2.3293,2.2946,2.2947,2.2977,2.2992,2.3012,2.303,2.3035,2.3062,2.3074,2.3096,2.3119,2.313,2.3156,2.3187,2.3202,2.3211,2.3225,2.3221,2.322,2.3218,2.3213,2.3264,2.3215,2.3216,2.3216,2.3216,2.3216,0,2.2881,2.2903,2.2917,2.2945,2.2957,2.2984,2.3008,2.3016,2.3026,2.3049,2.3064,2.308,2.3095,2.3126,2.3144,2.3145,2.3158,2.3148,2.3148,2.3152,2.32,2.32,2.3138,2.3138,2.3138,2.3138,2.3138,2.3138,2.2848,2.2852,2.2874,2.2888,2.291,2.2923,2.2935,2.2952,2.2971,2.2988,2.3002,2.3023,2.3049,2.307,2.3085,2.3093,2.3098,2.3084,2.3097,2.3141,2.3148,2.3155,2.3156,2.3085,2.3085,2.3048,2.3048,2.3047]}]]